Home   Weather   24°11'N, 120°37'E   Past weeks
Flag for Taiwan

Past Weather in 24°11'N, 120°37'E, Taiwan — Yesterday and Last 2 Weeks

Now
82 °F

Passing clouds.


Feels Like: 92 °F
Forecast: 94 / 82 °F
Wind: 17 mph from Northeast

Location: Chiang Kai Shek

Current Time: Jul 18, 2019 at 3:16:26 am

Latest Report: Jul 18, 2019 at 2:30 am


Visibility: N/A

Pressure: 29.45 "Hg

Humidity: 89%

Dew Point: 79 °F

Location of 24°11'N, 120°37'ELocation

Past Weather in 24°11'N, 120°37'E — Graph

°F

24°11'N, 120°37'E Temperature Yesterday

Maximum temperature yesterday: 97 °F (at 12:00 pm)
Minimum temperature yesterday: 82 °F (at 6:30 pm)
Average temperature yesterday: 88 °F

High & Low Weather Summary for the Past Weeks

 TemperatureHumidityPressure
High97 °F (Jul 17, 12:00 pm)94% (Jul 3, 2:30 am)29.83 "Hg (Jul 3, 2:30 am)
Low79 °F (Jul 9, 5:00 am)52% (Jul 16, 11:30 am)29.45 "Hg (Jul 18, 2:00 am)
Average87 °F77%29.66 "Hg
* Reported Jul 3 2:00 am — Jul 18 2:00 am, 24°11'N, 120°37'E. Weather by CustomWeather, © 2019

Note: Actual official high and low records may vary slightly from our data, if they occured in-between our weather recording intervals... More about our weather records

Advertising

24°11'N, 120°37'E Weather History for the Previous 24 Hours

Scroll right to see more
 ConditionsComfort  
Time TempWeatherWind HumidityBarometerVisibility
2:00 am
Thu, Jul 18
82 °FPassing clouds.16 mph89%29.45 "HgN/A
1:41 am82 °FPassing clouds.15 mph89%29.47 "HgN/A
1:30 am82 °FPassing clouds.15 mph89%29.47 "HgN/A
1:00 am82 °FPassing clouds.14 mph89%29.47 "HgN/A
12:30 am82 °FPassing clouds.14 mph89%29.50 "HgN/A
12:00 am82 °FPassing clouds.12 mph89%29.50 "HgN/A
11:30 pm
Wed, Jul 17
82 °FPassing clouds.15 mph89%29.50 "HgN/A
11:00 pm84 °FPassing clouds.10 mph79%29.50 "HgN/A
10:30 pm84 °FPassing clouds.10 mph79%29.53 "HgN/A
10:00 pm84 °FPassing clouds.13 mph79%29.53 "HgN/A
9:30 pm82 °FPassing clouds.12 mph84%29.53 "HgN/A
9:00 pm84 °FPassing clouds.10 mph79%29.53 "HgN/A
8:30 pm84 °FPassing clouds.13 mph79%29.50 "HgN/A
8:00 pm82 °FPassing clouds.13 mph89%29.50 "HgN/A
7:30 pm82 °FPassing clouds.17 mph89%29.50 "HgN/A
7:00 pm82 °FPassing clouds.16 mph89%29.50 "HgN/A
6:30 pm82 °FLight rain. Partly sunny.18 mph89%29.47 "HgN/A
6:08 pm86 °FLight rain. Partly sunny.23 mph79%29.47 "HgN/A
6:00 pm88 °FPartly sunny.20 mph75%29.47 "HgN/A
5:30 pm90 °FPartly sunny.20 mph67%29.47 "HgN/A
5:00 pm88 °FPartly sunny.25 mph75%29.47 "HgN/A
4:36 pm88 °FScattered showers. Partly sunny.24 mph75%29.47 "HgN/A
4:00 pm91 °FPartly sunny.24 mph67%29.47 "HgN/A
3:42 pm91 °FScattered clouds.24 mph67%29.50 "HgN/A
3:30 pm95 °FScattered clouds.25 mph53%29.50 "HgN/A
3:00 pm95 °FPassing clouds.23 mph53%29.50 "HgN/A
2:30 pm95 °FScattered clouds.21 mph60%29.50 "HgN/A
2:00 pm95 °FScattered clouds.25 mph56%29.50 "HgN/A
1:30 pm95 °FScattered clouds.23 mph56%29.53 "HgN/A
1:00 pm93 °FScattered clouds.23 mph59%29.53 "HgN/A
12:30 pm95 °FPassing clouds.29 mph56%29.53 "HgN/A
12:00 pm97 °FPassing clouds.22 mph53%29.53 "HgN/A
11:30 am95 °FPassing clouds.24 mph56%29.53 "HgN/A
11:02 am95 °FPassing clouds.26 mph56%29.53 "HgN/A
10:30 am93 °FPassing clouds.22 mph59%29.56 "HgN/A
10:00 am93 °FPassing clouds.22 mph59%29.56 "HgN/A
9:30 am93 °FPassing clouds.22 mph59%29.56 "HgN/A
9:00 am91 °FPassing clouds.23 mph63%29.56 "HgN/A
8:30 am91 °FPassing clouds.23 mph63%29.56 "HgN/A
8:00 am90 °FPassing clouds.23 mph67%29.56 "HgN/A
7:30 am90 °FPassing clouds.22 mph67%29.56 "HgN/A
7:00 am88 °FPassing clouds.20 mph66%29.56 "HgN/A
6:30 am86 °FPassing clouds.20 mph70%29.56 "HgN/A
6:00 am86 °FPassing clouds.21 mph75%29.56 "HgN/A
5:30 am84 °FPassing clouds.20 mph79%29.56 "HgN/A
5:00 am84 °FPassing clouds.20 mph74%29.56 "HgN/A
4:30 am84 °FPassing clouds.18 mph74%29.56 "HgN/A
4:00 am84 °FPassing clouds.20 mph74%29.56 "HgN/A
3:30 am84 °FPassing clouds.21 mph74%29.56 "HgN/A
3:00 am84 °FPassing clouds.17 mph74%29.56 "HgN/A
Weather by CustomWeather, © 2019

See weather overview